Temp
-14 -14 -13 -14 -13 -14 -13 -13 -13 -13 -12 -12 -12 -12 -12 -11 -11 -10 -10 -10 -9 -9 -9 -9 -9 -8 -9 -9 -9 -9 -9 -8 -9 -9 -8 -8 -9 -9 -9 -10 -9 -10 -10 -10 -10 -11 -11
-14 -13 -13 -13 -13 -13 -13 -14 -14 -14 -13 -13 -12 -12 -12 -12 -12 -11 -11 -10 -9 -9 -9 -9 -9 -9 -9 -9 -9 -9 -9 -9 -9 -9 -9 -9 -9 -10 -10 -10 -10 -10 -11 -11 -11 -12 -12
-14 -14 -14 -14 -13 -13 -14 -14 -14 -14 -14 -13 -13 -13 -13 -12 -12 -12 -11 -10 -10 -10 -10 -10 -10 -10 -9 -9 -9 -10 -9 -10 -10 -10 -10 -10 -10 -10 -11 -11 -10 -11 -11 -12 -12 -12 -12
-14 -14 -14 -15 -14 -14 -14 -14 -14 -14 -14 -14 -13 -13 -13 -13 -13 -12 -12 -11 -11 -11 -11 -11 -11 -11 -10 -10 -10 -10 -10 -10 -10 -11 -10 -10 -10 -11 -11 -11 -11 -11 -12 -12 -13 -13 -13
-15 -15 -15 -14 -15 -15 -14 -13 -14 -14 -13 -13 -13 -13 -13 -13 -13 -13 -12 -12 -12 -12 -12 -12 -12 -12 -11 -12 -11 -11 -10 -10 -11 -11 -11 -11 -11 -11 -12 -11 -12 -13 -13 -13 -13 -13 -13
-15 -14 -14 -14 -14 -14 -15 -14 -14 -14 -13 -14 -14 -13 -13 -13 -13 -13 -13 -12 -12 -12 -12 -12 -12 -12 -12 -12 -12 -12 -11 -11 -12 -12 -12 -12 -12 -12 -12 -13 -13 -14 -13 -13 -13 -13 -14
-15 -15 -14 -14 -14 -13 -14 -14 -13 -14 -14 -14 -14 -14 -13 -13 -13 -13 -13 -13 -13 -13 -13 -12 -12 -12 -12 -12 -12 -12 -12 -12 -12 -12 -13 -13 -13 -13 -14 -13 -13 -13 -13 -13 -14 -14 -14
-16 -15 -15 -15 -14 -14 -13 -13 -13 -13 -13 -14 -14 -14 -14 -13 -13 -13 -13 -13 -13 -13 -13 -13 -12 -12 -12 -12 -12 -12 -12 -13 -13 -13 -13 -13 -14 -13 -13 -13 -14 -14 -14 -14 -15 -15 -15
-16 -16 -16 -15 -15 -14 -14 -13 -13 -13 -13 -14 -14 -14 -14 -14 -14 -13 -13 -13 -13 -13 -13 -12 -12 -12 -12 -12 -12 -12 -13 -13 -14 -14 -14 -14 -14 -14 -14 -14 -14 -14 -15 -15 -15 -16 -16
-17 -17 -16 -16 -15 -15 -14 -14 -14 -14 -14 -14 -14 -14 -14 -14 -14 -14 -13 -13 -13 -13 -13 -13 -12 -12 -12 -12 -13 -13 -13 -13 -14 -14 -14 -14 -14 -14 -14 -14 -15 -15 -15 -15 -16 -16 -16
-18 -18 -17 -17 -16 -16 -15 -15 -14 -14 -14 -14 -14 -15 -15 -14 -14 -14 -13 -14 -14 -13 -13 -13 -12 -12 -12 -12 -13 -13 -13 -13 -14 -14 -14 -14 -14 -15 -15 -15 -15 -15 -16 -16 -16 -16 -16
-19 -18 -18 -17 -17 -17 -16 -16 -15 -15 -15 -14 -14 -15 -15 -15 -14 -14 -13 -14 -14 -14 -13 -13 -12 -13 -12 -13 -13 -13 -14 -14 -14 -14 -14 -14 -14 -14 -15 -15 -15 -15 -16 -16 -16 -16 -16
-20 -19 -19 -18 -18 -17 -17 -16 -16 -15 -15 -15 -15 -15 -15 -15 -14 -14 -14 -14 -14 -14 -13 -13 -13 -13 -13 -13 -13 -13 -13 -14 -14 -15 -15 -15 -15 -14 -15 -15 -15 -15 -16 -16 -16 -16 -17
-21 -21 -20 -19 -18 -18 -17 -17 -17 -16 -15 -15 -15 -15 -16 -16 -15 -15 -14 -14 -14 -14 -13 -13 -13 -13 -13 -12 -13 -14 -14 -14 -15 -15 -15 -15 -15 -15 -15 -15 -15 -15 -15 -16 -17 -16 -16
-22 -21 -21 -20 -20 -19 -18 -18 -17 -17 -16 -16 -16 -16 -16 -16 -15 -15 -14 -14 -14 -14 -13 -13 -13 -14 -13 -13 -13 -13 -14 -15 -15 -15 -15 -15 -15 -15 -15 -15 -15 -15 -16 -16 -17 -17 -17
-22 -22 -21 -21 -20 -20 -19 -18 -18 -18 -17 -17 -16 -17 -17 -16 -16 -15 -15 -15 -14 -14 -14 -13 -14 -14 -13 -13 -14 -14 -14 -15 -15 -15 -15 -15 -14 -14 -15 -15 -15 -16 -16 -17 -17 -18 -18
-24 -23 -23 -22 -22 -21 -20 -19 -19 -19 -18 -18 -17 -18 -17 -16 -16 -15 -15 -15 -15 -14 -14 -14 -14 -14 -14 -14 -14 -14 -14 -14 -15 -15 -15 -14 -14 -14 -14 -15 -15 -16 -17 -18 -19 -19 -19
-24 -24 -24 -23 -23 -22 -21 -20 -20 -19 -19 -19 -19 -18 -17 -17 -16 -15 -15 -15 -15 -14 -14 -14 -14 -14 -14 -14 -14 -14 -14 -14 -15 -14 -14 -14 -14 -14 -14 -15 -15 -15 -17 -18 -19 -20 -19
-24 -24 -24 -24 -23 -23 -22 -21 -20 -20 -20 -20 -20 -19 -18 -17 -16 -16 -16 -15 -14 -15 -15 -14 -14 -15 -15 -14 -14 -15 -15 -15 -15 -14 -14 -14 -14 -14 -14 -14 -14 -16 -17 -19 -19 -20 -19
-24 -24 -24 -24 -24 -23 -23 -23 -22 -21 -21 -20 -20 -19 -18 -17 -16 -16 -16 -15 -15 -15 -15 -15 -15 -15 -15 -15 -15 -15 -15 -15 -14 -14 -14 -14 -14 -14 -14 -14 -15 -16 -17 -18 -19 -19 -20
-25 -24 -24 -24 -24 -24 -23 -23 -22 -21 -21 -21 -20 -19 -18 -17 -17 -17 -16 -15 -15 -14 -15 -15 -15 -15 -15 -16 -15 -15 -15 -15 -14 -14 -14 -14 -14 -15 -15 -15 -16 -17 -17 -18 -18 -18 -19
-25 -24 -24 -24 -24 -24 -23 -23 -23 -22 -21 -21 -20 -19 -18 -17 -17 -17 -16 -15 -15 -15 -15 -15 -15 -15 -16 -16 -16 -15 -15 -15 -15 -15 -15 -15 -15 -15 -15 -16 -16 -17 -18 -18 -18 -18 -19
-25 -25 -24 -24 -24 -24 -23 -23 -23 -22 -21 -21 -20 -20 -19 -18 -17 -17 -17 -16 -15 -15 -15 -15 -16 -16 -16 -16 -16 -15 -15 -15 -15 -15 -15 -15 -15 -16 -16 -17 -17 -17 -17 -18 -18 -18 -18
-25 -25 -25 -24 -24 -24 -23 -23 -22 -22 -21 -21 -21 -20 -19 -18 -17 -17 -17 -16 -16 -15 -15 -15 -16 -16 -15 -16 -15 -15 -15 -15 -15 -15 -16 -16 -16 -16 -17 -17 -17 -18 -18 -18 -18 -18 -18
-25 -25 -25 -24 -24 -23 -23 -23 -22 -22 -22 -21 -21 -21 -20 -19 -18 -17 -17 -16 -16 -15 -16 -16 -16 -16 -16 -16 -15 -15 -15 -15 -16 -16 -16 -16 -17 -17 -17 -18 -18 -18 -18 -18 -18 -19 -19
-25 -25 -25 -25 -24 -23 -23 -23 -22 -22 -22 -22 -21 -21 -20 -19 -18 -17 -17 -16 -16 -16 -16 -16 -16 -16 -16 -16 -16 -16 -15 -16 -16 -16 -16 -16 -17 -17 -17 -18 -18 -18 -18 -18 -19 -19 -19
-25 -25 -25 -25 -24 -23 -23 -23 -23 -22 -22 -22 -22 -21 -20 -20 -18 -18 -17 -16 -16 -16 -16 -17 -16 -16 -16 -16 -16 -16 -16 -16 -16 -16 -16 -17 -17 -17 -17 -18 -18 -18 -18 -19 -19 -20 -20
-25 -25 -25 -25 -24 -24 -23 -23 -23 -22 -23 -22 -22 -22 -21 -19 -18 -18 -17 -17 -16 -16 -16 -16 -16 -16 -16 -16 -16 -16 -16 -16 -16 -16 -16 -17 -17 -17 -17 -18 -18 -18 -18 -19 -20 -20 -21
-26 -25 -25 -24 -24 -24 -23 -23 -23 -22 -23 -23 -22 -21 -21 -19 -19 -18 -18 -17 -17 -17 -17 -16 -16 -16 -16 -16 -16 -16 -16 -17 -17 -17 -17 -17 -17 -17 -17 -18 -18 -18 -19 -20 -20 -21 -21
Height
5787 5790 5793 5794 5798 5800 5803 5805 5805 5806 5808 5810 5811 5812 5812 5812 5811 5812 5812 5811 5809 5808 5808 5809 5810 5811 5813 5813 5814 5814 5813 5813 5813 5813 5813 5811 5811 5812 5811 5810 5810 5810 5810 5810 5808 5808 5807
5780 5783 5786 5790 5793 5794 5797 5800 5801 5802 5804 5806 5808 5808 5809 5809 5808 5808 5808 5807 5804 5803 5802 5802 5802 5803 5805 5806 5807 5808 5808 5808 5808 5807 5807 5806 5806 5806 5806 5805 5805 5805 5804 5804 5803 5803 5801
5773 5776 5778 5781 5785 5787 5791 5793 5796 5797 5799 5802 5803 5805 5805 5805 5805 5804 5805 5803 5801 5799 5797 5796 5795 5794 5796 5798 5799 5800 5800 5800 5801 5801 5801 5801 5801 5800 5800 5798 5799 5800 5799 5799 5799 5797 5794
5764 5766 5771 5773 5779 5780 5784 5787 5788 5790 5793 5797 5798 5800 5800 5801 5801 5800 5801 5799 5798 5795 5793 5792 5791 5789 5789 5790 5790 5791 5792 5793 5794 5794 5794 5795 5795 5794 5793 5793 5793 5794 5794 5793 5793 5790 5787
5753 5757 5761 5764 5770 5772 5775 5779 5780 5784 5787 5790 5793 5795 5796 5796 5797 5797 5797 5796 5795 5793 5791 5790 5788 5787 5786 5784 5783 5784 5783 5785 5787 5787 5787 5788 5788 5788 5788 5788 5788 5788 5788 5786 5784 5785 5784
5741 5745 5748 5753 5757 5762 5765 5768 5772 5775 5778 5783 5786 5789 5790 5790 5792 5793 5793 5792 5791 5790 5788 5788 5786 5787 5784 5782 5780 5778 5778 5779 5779 5780 5780 5780 5782 5783 5784 5784 5785 5782 5780 5779 5779 5780 5778
5729 5733 5737 5740 5744 5750 5754 5758 5762 5766 5770 5774 5779 5782 5784 5785 5786 5788 5789 5788 5789 5789 5786 5786 5784 5783 5782 5779 5777 5776 5773 5773 5773 5774 5772 5776 5778 5777 5777 5778 5777 5777 5776 5775 5776 5773 5772
5717 5720 5724 5728 5732 5736 5742 5747 5751 5755 5760 5765 5770 5775 5778 5778 5781 5784 5783 5783 5784 5785 5783 5782 5781 5779 5779 5776 5773 5772 5770 5769 5769 5769 5769 5772 5773 5772 5772 5774 5774 5772 5771 5772 5770 5767 5764
5705 5708 5711 5715 5719 5725 5730 5734 5739 5744 5749 5755 5760 5765 5771 5771 5775 5778 5778 5779 5779 5780 5779 5778 5777 5777 5776 5775 5771 5769 5769 5767 5766 5767 5768 5769 5769 5769 5769 5770 5769 5767 5766 5766 5763 5760 5757
5694 5697 5699 5702 5707 5712 5717 5723 5728 5733 5739 5744 5750 5755 5762 5764 5769 5771 5771 5774 5775 5775 5776 5776 5774 5774 5773 5772 5769 5767 5767 5767 5765 5766 5767 5767 5766 5766 5766 5766 5764 5763 5762 5760 5756 5754 5751
5682 5685 5689 5692 5696 5700 5705 5711 5716 5722 5728 5734 5740 5746 5752 5756 5760 5764 5766 5768 5770 5772 5771 5772 5771 5770 5770 5769 5767 5766 5765 5764 5764 5764 5766 5765 5763 5763 5762 5762 5759 5757 5755 5753 5750 5747 5744
5669 5673 5676 5680 5684 5689 5694 5699 5705 5711 5717 5723 5729 5736 5742 5748 5752 5756 5759 5762 5765 5768 5767 5768 5767 5767 5767 5766 5765 5765 5764 5763 5762 5762 5762 5761 5761 5760 5759 5758 5756 5753 5750 5748 5744 5741 5736
5657 5660 5664 5667 5672 5677 5682 5688 5694 5700 5706 5712 5719 5726 5732 5739 5744 5749 5752 5756 5760 5760 5762 5764 5764 5764 5764 5764 5763 5763 5762 5761 5760 5759 5758 5758 5758 5757 5755 5753 5750 5748 5746 5742 5737 5734 5731
5645 5648 5651 5655 5659 5664 5670 5676 5682 5689 5695 5702 5709 5716 5722 5729 5736 5741 5745 5749 5752 5755 5757 5760 5761 5761 5761 5761 5761 5760 5759 5759 5757 5755 5754 5754 5753 5751 5749 5747 5745 5741 5740 5736 5728 5727 5726
5633 5636 5640 5643 5647 5652 5657 5663 5669 5676 5684 5691 5698 5706 5713 5719 5726 5732 5737 5741 5747 5749 5753 5756 5756 5757 5758 5758 5758 5757 5757 5756 5753 5752 5751 5750 5749 5747 5744 5741 5739 5734 5729 5727 5722 5719 5714
5623 5625 5628 5631 5634 5639 5644 5650 5657 5664 5672 5680 5687 5696 5702 5710 5717 5723 5730 5736 5740 5743 5747 5750 5751 5753 5755 5754 5754 5754 5752 5751 5749 5747 5747 5746 5743 5741 5738 5735 5731 5726 5722 5718 5714 5708 5704
5613 5615 5617 5620 5623 5627 5632 5638 5645 5653 5661 5669 5677 5685 5693 5702 5708 5715 5724 5730 5734 5737 5741 5744 5746 5749 5750 5750 5750 5750 5750 5748 5746 5745 5742 5739 5738 5736 5730 5727 5723 5719 5712 5708 5705 5702 5698
5605 5607 5609 5611 5614 5617 5621 5627 5634 5642 5651 5659 5667 5675 5685 5693 5701 5708 5717 5723 5727 5731 5734 5738 5741 5743 5745 5747 5747 5746 5745 5744 5742 5740 5737 5735 5731 5729 5725 5719 5713 5709 5704 5700 5694 5693 5693
5598 5600 5601 5603 5606 5608 5612 5617 5624 5633 5641 5649 5658 5667 5676 5684 5693 5702 5710 5715 5720 5726 5729 5733 5736 5739 5741 5743 5743 5742 5741 5740 5738 5736 5733 5731 5728 5721 5716 5714 5709 5703 5698 5694 5690 5687 5687
5591 5593 5594 5596 5598 5601 5604 5609 5616 5624 5633 5642 5651 5659 5666 5676 5686 5695 5702 5708 5715 5720 5724 5728 5732 5734 5736 5738 5739 5738 5737 5736 5734 5732 5730 5727 5721 5718 5715 5711 5704 5698 5696 5693 5689 5684 5682
5584 5586 5587 5589 5591 5595 5598 5602 5609 5617 5626 5635 5643 5650 5658 5669 5680 5688 5695 5701 5710 5715 5720 5724 5728 5730 5732 5734 5735 5734 5734 5733 5731 5729 5727 5724 5721 5717 5714 5710 5702 5700 5698 5694 5691 5687 5684
5578 5580 5581 5583 5586 5589 5592 5597 5603 5611 5620 5629 5637 5644 5654 5665 5674 5683 5689 5697 5705 5711 5716 5720 5724 5725 5728 5730 5731 5732 5732 5731 5730 5727 5725 5723 5720 5717 5714 5708 5703 5701 5698 5695 5691 5688 5686
5572 5574 5576 5578 5580 5584 5587 5593 5599 5606 5615 5623 5630 5639 5649 5659 5668 5677 5685 5692 5699 5705 5712 5716 5719 5721 5723 5726 5728 5729 5729 5729 5727 5726 5724 5721 5718 5716 5714 5706 5704 5703 5698 5695 5693 5691 5688
5567 5569 5571 5573 5576 5579 5583 5589 5595 5602 5610 5619 5627 5635 5644 5653 5663 5671 5680 5688 5695 5701 5708 5711 5715 5717 5720 5722 5724 5726 5726 5726 5726 5724 5722 5719 5718 5717 5712 5707 5706 5703 5699 5696 5694 5691 5689
5563 5565 5567 5569 5572 5576 5580 5585 5592 5599 5607 5614 5622 5630 5638 5648 5658 5668 5676 5683 5690 5697 5702 5707 5710 5713 5716 5719 5721 5723 5724 5724 5724 5723 5720 5719 5718 5717 5711 5707 5707 5703 5699 5697 5693 5690 5686
5559 5561 5564 5566 5569 5572 5577 5582 5589 5596 5603 5611 5618 5626 5634 5644 5654 5663 5670 5677 5685 5693 5699 5703 5706 5710 5714 5716 5718 5720 5722 5723 5723 5722 5720 5719 5718 5717 5710 5707 5705 5702 5698 5694 5690 5687 5682
5554 5557 5560 5563 5566 5569 5574 5579 5586 5592 5599 5607 5614 5621 5630 5639 5649 5657 5664 5673 5682 5689 5695 5698 5703 5706 5709 5713 5716 5718 5720 5720 5721 5720 5719 5718 5717 5714 5708 5705 5703 5698 5694 5690 5686 5684 5675
5550 5553 5557 5560 5563 5567 5571 5576 5582 5589 5596 5603 5610 5617 5626 5636 5644 5652 5661 5671 5679 5686 5691 5695 5701 5703 5707 5711 5714 5716 5717 5718 5719 5718 5717 5717 5715 5711 5705 5703 5700 5695 5691 5687 5681 5674 5669
5546 5549 5553 5557 5561 5564 5568 5573 5579 5586 5592 5599 5607 5615 5624 5633 5642 5650 5659 5667 5675 5683 5689 5694 5698 5700 5704 5708 5712 5714 5715 5716 5716 5716 5715 5715 5713 5708 5704 5700 5695 5692 5686 5680 5674 5668 5663
Wind_Speed
31 30 31 24 31 29 26 24 22 20 19 16 14 14 16 16 17 18 20 21 24 28 35 39 40 38 35 33 31 28 27 24 22 21 22 24 24 25 25 27 26 22 24 26 26 30 33
33 36 35 35 31 32 31 31 27 25 22 18 16 15 17 18 19 18 19 22 23 25 28 33 38 39 39 37 35 33 32 29 26 23 24 26 25 24 25 26 26 25 23 26 27 29 32
42 41 40 38 34 30 30 35 36 31 25 21 21 20 20 19 20 20 20 21 22 23 25 26 31 34 38 38 37 35 35 34 31 29 27 27 27 25 24 28 28 27 25 27 28 30 33
51 43 41 40 39 37 36 33 31 34 31 28 26 25 25 23 21 22 22 21 22 21 21 21 24 27 28 29 33 36 36 36 33 31 30 26 27 28 28 29 28 25 26 28 28 30 33
54 56 52 52 51 46 44 44 45 40 40 35 30 29 29 27 26 23 22 21 20 18 18 15 17 20 18 20 22 26 33 32 31 31 32 30 28 28 28 28 26 24 24 28 31 30 30
58 59 61 60 58 58 53 50 50 48 46 42 35 31 30 30 29 23 21 20 20 17 16 14 17 17 19 19 19 20 23 23 25 26 29 30 27 25 23 23 22 25 29 31 30 27 28
59 59 60 61 59 60 60 57 54 53 48 46 40 33 31 32 32 25 23 23 21 18 18 16 18 18 18 20 21 20 19 19 20 22 28 25 23 23 26 26 27 26 27 26 27 30 38
58 58 59 59 60 60 60 58 57 55 53 48 44 37 31 33 31 27 25 23 24 21 21 17 18 20 20 19 18 17 18 17 15 18 22 19 21 22 23 21 20 21 25 28 31 34 33
58 58 58 58 58 59 59 59 57 56 54 51 47 42 34 35 31 28 27 22 24 23 20 21 19 19 21 18 15 14 12 13 10 13 15 15 16 17 16 18 21 24 25 26 28 34 35
57 57 58 59 59 60 60 59 58 56 53 51 50 45 39 37 35 29 30 26 26 24 23 23 21 19 20 17 14 12 8 8 9 11 9 11 13 13 14 17 23 26 28 28 29 31 31
55 55 55 57 58 58 58 57 56 57 54 50 47 46 43 39 34 33 31 27 26 25 24 24 21 18 17 15 13 12 11 9 10 12 10 13 13 15 17 17 22 25 28 30 31 33 35
52 54 54 55 54 55 56 55 54 54 51 48 45 42 43 40 37 34 32 30 26 27 23 22 18 15 13 11 13 12 10 11 12 11 9 13 13 17 19 22 24 26 27 29 31 33 37
52 53 55 55 55 55 53 52 51 51 49 46 43 41 40 39 38 34 34 32 30 28 25 23 21 17 13 11 12 9 10 9 8 9 11 13 14 17 19 22 24 24 26 29 34 32 33
47 49 50 53 55 55 54 53 52 51 49 47 43 39 40 39 39 36 36 34 33 29 27 20 21 19 15 11 9 8 11 10 10 13 17 18 19 20 21 21 24 28 29 31 38 38 38
44 45 47 49 51 53 53 53 53 52 51 49 46 39 40 40 39 37 37 37 33 31 28 21 22 19 17 11 10 8 9 8 11 16 16 17 19 20 22 25 28 33 36 38 39 41 42
40 42 44 45 47 49 51 53 52 50 48 48 46 38 41 42 41 39 38 35 33 31 26 24 24 19 16 11 10 10 10 9 13 15 17 18 19 23 28 31 34 36 38 40 41 44 45
33 34 37 38 41 44 47 49 47 46 45 45 44 39 44 43 43 40 37 33 34 31 27 25 23 18 14 12 12 11 10 11 13 14 17 21 23 28 34 36 38 37 41 41 40 38 39
29 29 31 32 34 38 42 47 46 42 41 41 41 41 44 46 44 40 36 34 35 32 29 26 22 18 16 14 13 13 13 13 13 15 19 23 29 30 32 34 35 38 34 30 29 27 26
28 27 28 29 31 33 37 41 43 41 39 41 41 43 45 47 45 40 36 37 36 31 28 26 22 19 15 17 14 13 14 13 14 17 21 23 25 27 27 26 23 19 15 15 18 16 20
27 27 27 29 29 30 32 34 37 39 40 41 41 44 47 48 46 42 38 39 35 29 29 26 22 19 17 16 14 12 14 11 15 16 18 20 20 17 15 13 10 11 13 14 15 16 9
26 26 26 28 27 28 30 32 37 40 40 41 42 46 48 49 46 42 41 41 32 28 26 27 22 19 19 14 15 14 12 11 14 13 14 13 10 8 7 8 13 14 12 13 14 15 12
24 24 25 26 25 25 27 29 34 38 39 41 43 45 46 46 45 42 43 40 32 28 27 25 22 19 17 16 16 13 11 10 10 9 9 7 7 7 9 12 15 13 13 13 13 12 10
22 22 22 23 22 23 25 27 32 36 38 40 42 43 45 46 45 44 42 39 34 30 26 23 22 19 20 18 15 13 10 8 6 6 7 7 8 9 9 13 13 11 12 11 12 12 11
21 20 19 20 20 22 24 26 30 34 38 40 42 41 44 45 45 45 42 38 34 31 27 25 22 23 21 17 15 13 10 7 5 5 5 6 7 8 8 11 11 11 12 12 12 12 13
20 19 17 18 19 21 23 26 31 33 38 39 42 38 44 43 45 44 41 38 34 31 28 25 25 24 18 17 15 12 10 7 5 4 4 6 6 9 8 9 9 11 13 15 17 18 18
21 19 18 18 19 21 24 27 33 40 40 36 41 42 45 42 44 43 43 41 37 30 28 25 27 23 19 19 16 13 10 8 6 4 5 8 8 10 9 11 14 15 16 17 19 19 22
22 20 19 19 19 21 24 28 34 36 36 35 34 43 49 42 45 44 45 41 36 32 29 29 27 22 23 20 18 14 11 9 8 6 7 10 12 12 12 14 18 19 23 24 26 25 25
24 21 20 19 20 22 24 27 34 32 37 33 38 43 49 42 46 45 45 39 36 32 31 30 27 23 22 20 18 14 11 9 10 10 10 12 13 14 14 18 22 23 26 27 27 27 29
26 24 22 21 21 23 25 27 32 32 33 32 44 47 47 44 44 45 43 40 36 31 30 28 24 25 23 20 18 14 12 10 9 11 12 13 15 15 18 21 25 28 28 28 27 28 30
Wind_Direction
230 235 241 244 241 237 242 236 236 234 233 240 251 259 268 273 280 282 283 283 279 276 271 267 266 267 268 270 268 267 267 268 265 262 262 260 260 262 263 266 269 270 277 277 272 268 260
239 243 248 253 247 244 249 240 237 240 242 247 254 262 271 281 283 288 289 295 291 287 280 272 267 266 266 269 271 268 267 267 266 263 261 262 260 263 263 262 264 263 262 267 272 271 262
244 247 253 251 243 239 241 238 244 247 246 259 254 264 270 273 281 288 288 293 294 296 289 283 277 271 268 271 269 268 264 264 260 261 258 259 258 255 256 258 262 266 263 263 264 266 260
248 244 240 242 245 237 239 236 237 238 246 256 261 261 265 268 277 286 290 294 297 301 298 296 291 284 279 275 270 267 267 264 263 260 260 258 258 255 252 255 255 257 260 262 256 254 258
247 243 242 241 248 248 245 244 249 251 255 257 263 263 262 262 272 279 285 286 289 296 299 301 300 300 298 285 279 272 266 268 265 261 260 258 254 255 257 262 259 258 259 256 257 257 261
250 249 250 251 250 243 246 252 254 254 253 257 260 261 261 259 263 272 274 284 282 281 292 300 304 307 307 298 286 277 276 271 263 257 254 253 250 255 258 257 259 252 255 259 266 268 264
253 252 251 252 252 249 251 250 252 253 253 255 257 256 255 258 257 263 273 269 268 270 284 291 298 304 307 301 292 286 278 273 262 251 249 251 250 250 249 249 253 261 264 268 279 273 278
255 255 254 252 252 254 253 253 253 253 254 254 255 255 251 253 257 256 262 263 260 264 273 282 292 301 308 309 295 286 280 281 266 243 253 255 247 248 250 252 255 262 273 276 272 272 276
256 256 255 255 254 253 253 252 252 253 254 254 254 255 249 247 251 253 253 265 255 260 265 277 285 295 304 300 290 275 280 269 255 242 239 242 248 251 255 271 275 269 267 267 270 276 283
254 255 255 255 255 254 253 252 251 253 253 253 251 250 249 247 246 252 256 259 252 257 259 270 281 288 298 298 283 283 267 253 246 252 249 246 254 259 265 269 270 269 270 273 278 283 288
253 252 252 252 252 253 252 252 251 250 253 251 250 247 245 244 245 248 254 254 252 252 260 263 274 283 296 291 275 267 256 256 258 257 249 247 255 258 263 265 261 267 269 278 280 279 283
253 252 249 249 249 249 249 249 249 248 249 249 249 243 240 239 242 243 247 247 251 251 259 260 265 269 282 276 265 260 254 251 253 263 262 266 265 268 272 268 275 280 279 280 279 279 278
252 250 249 247 246 245 246 246 246 246 247 246 244 239 235 232 237 237 239 239 247 249 256 252 255 256 252 260 265 265 255 251 259 273 286 279 279 279 281 277 278 279 281 280 278 277 283
251 250 249 247 245 245 244 244 244 243 243 243 240 234 225 226 228 232 233 235 238 244 248 253 251 244 248 259 265 275 272 266 271 274 280 286 296 296 290 289 285 281 279 277 280 277 277
253 250 250 250 247 243 241 241 241 240 238 239 238 230 220 220 223 227 229 231 234 240 244 247 242 241 244 251 258 272 266 270 268 275 283 285 285 288 290 288 285 286 285 284 285 286 286
256 254 251 249 247 244 241 239 239 238 236 235 235 224 218 216 219 224 227 227 231 235 241 240 235 232 237 246 248 261 280 281 273 282 292 297 301 300 295 296 293 291 290 289 289 287 288
255 253 251 248 246 244 242 238 236 235 233 230 226 214 215 213 216 218 225 220 228 228 233 235 239 230 233 235 250 265 274 274 273 287 296 306 306 304 302 299 296 295 295 292 288 283 287
254 251 250 248 248 246 240 236 233 230 227 221 217 211 210 210 214 213 215 213 224 222 227 232 234 236 238 243 251 269 279 277 288 304 309 309 306 304 297 298 303 301 299 295 293 285 273
253 249 249 250 250 249 244 236 229 224 217 213 211 209 207 208 211 208 206 212 220 217 221 226 229 232 232 242 256 269 276 281 298 306 309 310 308 310 314 313 309 305 327 333 326 312 258
251 250 249 250 248 247 243 234 221 212 210 210 209 209 206 205 207 205 201 209 214 210 216 221 224 228 225 236 254 264 271 288 299 308 314 313 319 323 324 323 355 28 27 2 358 4 312
252 252 250 247 243 241 235 230 215 207 207 207 208 208 205 202 204 203 199 207 207 207 212 220 219 222 227 228 245 256 264 284 299 309 317 319 331 348 358 24 49 47 30 21 22 17 16
251 250 248 244 238 233 224 217 211 205 206 205 206 206 205 202 204 200 199 204 203 207 211 217 217 220 218 224 237 245 258 273 284 307 312 320 346 358 14 32 46 37 32 18 11 22 21
250 249 247 239 231 224 214 211 205 201 201 203 205 205 203 201 201 200 200 200 200 206 209 212 215 212 216 225 224 230 239 252 275 291 306 339 354 359 7 33 27 19 22 15 2 359 358
247 246 241 233 224 216 208 205 202 199 197 202 202 202 203 200 199 200 199 197 198 204 206 208 207 213 217 216 212 218 222 236 253 279 313 338 350 345 21 30 14 6 3 359 351 347 346
241 241 235 228 218 210 202 201 197 196 199 202 199 199 201 199 197 200 197 198 195 203 206 207 203 211 212 208 210 213 211 222 236 278 324 320 322 323 7 10 351 348 344 338 338 333 330
235 234 229 224 213 206 198 198 198 201 196 202 205 201 200 199 196 199 198 197 196 198 206 203 208 207 206 204 204 206 210 222 237 266 301 296 309 314 346 343 332 329 326 328 326 326 321
230 227 223 221 211 204 198 197 199 205 202 199 207 202 193 199 194 198 199 195 193 198 202 203 206 205 201 202 199 204 211 221 241 264 287 297 303 316 339 332 325 321 324 324 324 321 317
226 224 217 215 210 205 200 198 198 205 199 201 205 197 184 195 194 197 200 193 195 196 202 206 204 203 197 201 199 206 213 229 251 270 282 296 305 321 329 322 321 318 319 321 318 309 306
223 220 214 210 207 205 202 199 199 206 199 204 196 191 183 191 196 198 198 195 195 196 201 207 206 199 197 199 200 211 219 233 257 270 281 297 302 317 318 316 315 317 316 311 308 309 311